• In Czech Republic
  • List of Countries
  • For 7 days
  • Water Temperature
  • Satellite Maps
  • Weather Map
  • Weather Widgets
  • user-avatar
    Login

    Hourly Weather Klagenfurt

    Today, 27 April, Friday

    Time Temperature Precipitation Wind Pressure Humidity
    00:00 +9°C° 0.7 mm 1 mps 691 mmHg 93%
    01:00 +8°C° 0.7 mm 1 mps 691 mmHg 93%
    02:00 +8°C° 0.3 mm 1 mps 691 mmHg 93%
    03:00 +8°C° 0.3 mm 1 mps 690 mmHg 93%
    04:00 +8°C° 0.3 mm 1 mps 690 mmHg 93%
    05:00 +8°C° 0 mm 1 mps 690 mmHg 92%
    06:00 +8°C° 0 mm 1 mps 690 mmHg 90%
    07:00 +8°C° 0 mm 2 mps 690 mmHg 88%
    08:00 +9°C° 0 mm 2 mps 690 mmHg 83%
    09:00 +10°C° 0 mm 2 mps 690 mmHg 77%
    10:00 +12°C° 0 mm 2 mps 690 mmHg 71%
    11:00 +14°C° 0 mm 2 mps 690 mmHg 67%
    12:00 +15°C° 0 mm 2 mps 690 mmHg 62%
    13:00 +18°C° 0 mm 1 mps 690 mmHg 58%
    14:00 +18°C° 0 mm 1 mps 689 mmHg 58%
    15:00 +18°C° 0 mm 1 mps 689 mmHg 59%
    16:00 +19°C° 0 mm 1 mps 689 mmHg 59%
    17:00 +16°C° 0 mm 1 mps 688 mmHg 67%
    18:00 +14°C° 0 mm 1 mps 688 mmHg 75%
    19:00 +13°C° 0 mm 1 mps 687 mmHg 83%
    20:00 +12°C° 0 mm 1 mps 688 mmHg 86%
    21:00 +11°C° 0 mm 1 mps 688 mmHg 88%
    22:00 +10°C° 0 mm 1 mps 688 mmHg 91%
    23:00 +10°C° 0 mm 1 mps 688 mmHg 91%

    Tomorrow, 28 April, Saturday

    Time Temperature Precipitation Wind Pressure Humidity
    00:00 +9°C° 0 mm 1 mps 688 mmHg 92%
    01:00 +9°C° 0 mm 1 mps 688 mmHg 92%
    02:00 +9°C° 0 mm 1 mps 688 mmHg 92%
    03:00 +9°C° 0 mm 1 mps 687 mmHg 92%
    04:00 +8°C° 0 mm 1 mps 687 mmHg 92%
    05:00 +10°C° 0 mm 1 mps 688 mmHg 88%
    06:00 +10°C° 0 mm 0 mps 688 mmHg 83%
    07:00 +12°C° 0 mm 0 mps 688 mmHg 78%
    08:00 +14°C° 0 mm 0 mps 689 mmHg 69%
    09:00 +19°C° 0 mm 1 mps 689 mmHg 59%
    10:00 +21°C° 0 mm 1 mps 690 mmHg 49%
    11:00 +22°C° 0 mm 1 mps 690 mmHg 47%
    12:00 +21°C° 0 mm 2 mps 689 mmHg 45%
    13:00 +23°C° 0 mm 2 mps 689 mmHg 43%
    14:00 +23°C° 0.1 mm 2 mps 689 mmHg 45%
    15:00 +21°C° 0.1 mm 3 mps 688 mmHg 46%
    16:00 +21°C° 0.1 mm 3 mps 688 mmHg 48%
    17:00 +19°C° 0.1 mm 2 mps 688 mmHg 58%
    18:00 +17°C° 0.1 mm 2 mps 687 mmHg 67%
    19:00 +15°C° 0.1 mm 1 mps 687 mmHg 77%
    20:00 +14°C° 0 mm 1 mps 687 mmHg 80%
    21:00 +13°C° 0 mm 1 mps 687 mmHg 84%
    22:00 +12°C° 0 mm 1 mps 688 mmHg 87%
    23:00 +11°C° 0 mm 1 mps 687 mmHg 87%

    Day after tomorrow, 29 April, Sunday

    Time Temperature Precipitation Wind Pressure Humidity
    00:00 +11°C° 0 mm 1 mps 687 mmHg 88%
    01:00 +10°C° 0 mm 1 mps 687 mmHg 88%
    02:00 +10°C° 0 mm 1 mps 687 mmHg 88%
    03:00 +10°C° 0 mm 1 mps 686 mmHg 88%
    04:00 +10°C° 0 mm 1 mps 686 mmHg 87%
    05:00 +11°C° 0 mm 1 mps 686 mmHg 83%
    06:00 +12°C° 0 mm 1 mps 687 mmHg 78%
    07:00 +14°C° 0 mm 1 mps 687 mmHg 73%
    08:00 +16°C° 0 mm 1 mps 687 mmHg 66%
    09:00 +19°C° 0 mm 1 mps 687 mmHg 59%
    10:00 +20°C° 0 mm 2 mps 688 mmHg 51%
    11:00 +21°C° 0 mm 2 mps 687 mmHg 49%
    12:00 +21°C° 0 mm 3 mps 687 mmHg 46%
    13:00 +22°C° 0 mm 3 mps 687 mmHg 43%
    14:00 +22°C° 0 mm 4 mps 687 mmHg 44%
    15:00 +21°C° 0 mm 4 mps 686 mmHg 45%
    16:00 +21°C° 0 mm 4 mps 686 mmHg 45%
    17:00 +19°C° 0 mm 3 mps 686 mmHg 54%
    18:00 +16°C° 0 mm 2 mps 685 mmHg 63%
    19:00 +14°C° 0 mm 2 mps 685 mmHg 72%
    20:00 +13°C° 0 mm 2 mps 685 mmHg 75%
    21:00 +12°C° 0 mm 2 mps 685 mmHg 78%
    22:00 +11°C° 0 mm 1 mps 685 mmHg 82%
    23:00 +11°C° 0 mm 1 mps 684 mmHg 83%

    30 April, Monday

    Time Temperature Precipitation Wind Pressure Humidity
    00:00 +11°C° 0 mm 1 mps 684 mmHg 84%
    01:00 +11°C° 0 mm 1 mps 684 mmHg 85%
    02:00 +10°C° 0 mm 1 mps 684 mmHg 88%
    03:00 +10°C° 0 mm 1 mps 684 mmHg 90%
    04:00 +10°C° 0 mm 1 mps 684 mmHg 93%
    05:00 +11°C° 0 mm 1 mps 685 mmHg 90%
    06:00 +12°C° 0 mm 1 mps 685 mmHg 86%
    07:00 +13°C° 0 mm 2 mps 685 mmHg 83%
    08:00 +14°C° 0.1 mm 2 mps 686 mmHg 78%
    09:00 +15°C° 0.1 mm 2 mps 687 mmHg 73%
    10:00 +16°C° 0.1 mm 2 mps 687 mmHg 68%
    11:00 +17°C° 0.1 mm 3 mps 687 mmHg 62%
    12:00 +18°C° 0.1 mm 3 mps 687 mmHg 55%
    13:00 +19°C° 0.1 mm 3 mps 687 mmHg 48%
    14:00 +19°C° 0 mm 3 mps 687 mmHg 48%
    15:00 +18°C° 0 mm 3 mps 687 mmHg 48%
    16:00 +18°C° 0 mm 3 mps 687 mmHg 47%
    17:00 +16°C° 0 mm 3 mps 686 mmHg 57%
    18:00 +14°C° 0 mm 2 mps 686 mmHg 66%
    19:00 +12°C° 0 mm 1 mps 686 mmHg 75%
    20:00 +11°C° 0 mm 1 mps 686 mmHg 79%
    21:00 +10°C° 0 mm 1 mps 686 mmHg 83%
    22:00 +9°C° 0 mm 1 mps 687 mmHg 87%
    23:00 +9°C° 0 mm 1 mps 687 mmHg 87%

    1 May, Tuesday

    Time Temperature Precipitation Wind Pressure Humidity
    00:00 +9°C° 0 mm 1 mps 686 mmHg 87%
    01:00 +8°C° 0 mm 1 mps 686 mmHg 87%
    02:00 +8°C° 0 mm 1 mps 686 mmHg 88%
    03:00 +8°C° 0 mm 1 mps 686 mmHg 89%
    04:00 +7°C° 0 mm 1 mps 686 mmHg 89%
    05:00 +9°C° 0 mm 1 mps 686 mmHg 85%
    06:00 +10°C° 0 mm 1 mps 686 mmHg 80%
    07:00 +11°C° 0 mm 1 mps 687 mmHg 75%
    08:00 +13°C° 0 mm 1 mps 687 mmHg 67%
    09:00 +15°C° 0 mm 2 mps 687 mmHg 60%
    10:00 +16°C° 0 mm 2 mps 687 mmHg 53%
    11:00 +17°C° 0 mm 2 mps 687 mmHg 51%
    12:00 +17°C° 0 mm 3 mps 687 mmHg 50%
    13:00 +17°C° 0 mm 3 mps 687 mmHg 49%
    14:00 +17°C° 0 mm 3 mps 687 mmHg 50%
    15:00 +17°C° 0 mm 2 mps 687 mmHg 51%
    16:00 +17°C° 0 mm 2 mps 687 mmHg 52%
    17:00 +15°C° 0 mm 2 mps 687 mmHg 61%
    18:00 +14°C° 0 mm 2 mps 686 mmHg 70%
    19:00 +12°C° 0 mm 1 mps 686 mmHg 79%
    20:00 +11°C° 0 mm 1 mps 686 mmHg 83%
    21:00 +10°C° 0 mm 1 mps 686 mmHg 86%
    22:00 +10°C° 0 mm 1 mps 686 mmHg 90%
    23:00 +9°C° 0 mm 1 mps 686 mmHg 91%

    2 May, Wednesday

    Time Temperature Precipitation Wind Pressure Humidity
    00:00 +9°C° 0 mm 1 mps 686 mmHg 91%
    01:00 +9°C° 0 mm 1 mps 686 mmHg 92%
    02:00 +9°C° 0.1 mm 1 mps 686 mmHg 92%
    03:00 +9°C° 0.1 mm 1 mps 686 mmHg 92%
    04:00 +8°C° 0.1 mm 0 mps 686 mmHg 91%
    05:00 +9°C° 1.3 mm 1 mps 686 mmHg 92%
    06:00 +10°C° 1.3 mm 1 mps 687 mmHg 92%
    07:00 +10°C° 1.3 mm 1 mps 687 mmHg 92%
    08:00 +11°C° 1.6 mm 1 mps 687 mmHg 90%
    09:00 +12°C° 1.6 mm 1 mps 687 mmHg 88%
    10:00 +13°C° 1.6 mm 1 mps 687 mmHg 85%
    11:00 +13°C° 0.8 mm 1 mps 687 mmHg 85%
    12:00 +14°C° 0.8 mm 1 mps 687 mmHg 85%
    13:00 +14°C° 0.8 mm 1 mps 686 mmHg 85%
    14:00 +15°C° 0.2 mm 1 mps 686 mmHg 83%
    15:00 +15°C° 0.2 mm 1 mps 686 mmHg 81%
    16:00 +16°C° 0.2 mm 1 mps 686 mmHg 79%
    17:00 +15°C° 0 mm 1 mps 686 mmHg 83%
    18:00 +14°C° 0 mm 1 mps 685 mmHg 88%
    19:00 +13°C° 0 mm 1 mps 685 mmHg 93%
    20:00 +12°C° 0 mm 1 mps 685 mmHg 94%
    21:00 +11°C° 0 mm 1 mps 685 mmHg 94%
    22:00 +11°C° 0 mm 1 mps 685 mmHg 95%
    23:00 +11°C° 0.3 mm 1 mps 685 mmHg 95%
    Show more